国际通讯卫星 512星 (INTELSAT 512)

导读

INTELSAT 512是国际通信卫星组织(ITSO)旗下的通信卫星,于1985年9月28日发射入轨,属于国际通信卫星星座,运行于地球静止轨道。作为早期全球商业通信卫星,它主要承担跨洋语音传输、广播电视信号分发等服务,为各大洲之间的通信连接提供基础设施支撑,推动了全球早期卫星通信网络的覆盖与普及,是国际通信卫星组织发展历程中重要的组网卫星。

Basic Information
目录编号:
16101
目录名称:
INTELSAT 512
国际标识:
1985-087A
轨道中心:
EARTH
卫星名称:
国际通讯卫星 512星
卫星全名:
国际通讯卫星 512星 (INTELSAT 512)
卫星状态:
在轨 (已飞行14913 天)
发射日期:
1985-09-28 UTC
国别 :
(ITSO)
星等 :
--
Orbit Information
数据来源 国际轨道数据 AOE轨道数据
星历时间 2026-07-28T08:04:52+0800
14小时前
查看轨道信息
2026-07-22T03:00:00+0800
6天前
查看轨道信息
半长轴 42491.771km 42493.086km
偏心率 0.0009752 0.0009667
轨道倾角 14.071° 14.075°
近地点辐角 315.717° 318.509°
升交点赤经 343.449° 343.494°
平近点角 27.033° 327.741°
近地点 36072.196km 36073.87km
远地点 36155.072km 36156.028km
周期 1452.837分钟 1452.905分钟
每日圈数 0.991164 0.991118
Detailed Information
卫星平台:
Intelsat V
平衡模式:
三轴稳定
覆盖范围:
全球
运营商:
国际卫星通信公司
运营商所在国:
美国
制造商(研发单位):
福特工程公司
制造商所在国:
美国
使用方式:
暂无
Satellite Introduction
从1965年4月至1984年3月,国际通信卫星组织发射了5代、6种不同性能的卫星共计35颗,除6颗卫星因运载火箭和远地点发动机故障而发射失败外,其余29颗卫星均被送到了预定的静止轨道位置。1984年8月前后,国际通信卫星组织利用部署在大西洋、太平洋、印度洋上空的15颗国际通信卫星,为遍布世界各地170多个国家或地区提供电话、电传、电报、电视和数据传输等电信业务;该卫星已退役。
2D Orbit Map
3D Orbit Map
Orbit Altitude Analysis Chart
Orbit Inclination Analysis Chart
Orbit Comprehensive Analysis Chart
View Comprehensive Chart